STARLINK-34600, 64699

Orbit data source: Space-Track

STARLINK-34600, 64699 is a payload satellite owned by SpaceX/Seattle (US) in LEO that was launched on Sat, 28 Jun 2025 UTC via an FALCON 9 launch vehicle from the Air Force Western Test Range (AFWTR). Payload-class satellites include a variety of spacecraft equipped with specific instruments for various scientific and technological missions. These include communications satellites like Starlink; space stations such as the ISS; scientific satellites like the Hubble; Earth observation satellites from companies like Planet Labs, Umbra, and HawkEye 360; GPS; miniature CubeSats for education and research; and military/defense satellites.

Loading next visibility...
Identifier
64699, 2025-142D
Orbit
LEO
Country
Flag of USUS
Related business
Manufacturer
SpaceX/Seattle
Mission
Operational Commercial Communications
Bus & Motor
STARLINK V2MO, Unknown motor
Mass
575 kg wet, ~530 kg dry
Launch date (UTC)
2025-06-28 (2 months ago)
Launch vehicle
FALCON 9
Launch site
Air Force Western Test Range (AFWTR)
Object type
Payload
Rocket body
Debris
Shape & HBR
Box + 1 Pan, 14.5 m
Radar Cross Section
41.120 m², Large (>1 m²)

Expand to show TLE details & history
Last TLE update: 1 day ago

TLE from 1 day ago
0 STARLINK-34600
1 64699U 25142D   25241.94725240  .00016204  00000-0  37190-3 0  9991
2 64699  70.0003  80.1447 0003938 263.8092  96.2641 15.42767580 10704
Epoch: 2025-08-29T22:44Z
TLE epoch observation values (Epoch: 2025-08-29T22:44:02.607Z)
Latitude
-0.00005°
Longitude
120.74523°
Altitude
440.711 km
Speed
7.648 km/s
True Right ascension
05h 20m 34s
True Declination
0° 00' 00"
Sunlit
Object was in daylight at epoch
Visualization orbit readout
Latitude
Unknown
Longitude
Unknown
Altitude
Unknown
Speed
Unknown
Apparent Right ascension
Unknown
Apparent Declination
Unknown
Sunlit
N/A
Visualization observer readout
Local Sidereal Time
16:46:23
Azimuth
Unknown
Elevation
Unknown
Doppler factor
Unknown
Orbital elements
Apogee altitude
438.537 km
Perigee altitude
433.17 km
Semi-major axis
6,813.99 km
Eccentricity
0.00039
Inclination
70.0003°
RAAN
80.1447°
Arg. of periapsis
263.8092°
True anomaly
96.30895°
Mean anomaly
96.2641°
Eccentric anomaly
96.28653°
Mean motion
3.8587 °/min
Orbital period
93.3 mins
BSTAR
0.0003719
Loading maneuver chart data...
Computing Atmospheric mass density...
Loading historical data...
Loading historical data...
Loading historical data...
Loading historical data...
Loading historical data...
Loading historical data...
Loading historical data...

Documentation

Showing up to 5 results
|